Regional Weather Roundup
Issued by NWS

Home | Current Version | Previous Version | Graphics & Text | Print | Product List | Glossary On
Versions: 1 2 3 4 5 6 7 8 9 10 11 12 13 14 15 16 17 18 19 20 21 22 23 24 25 26 27 28 29 30 31 32 33 34 35 36 37 38 39 40 41 42 43 44
000
ASUS45 KCYS 030910
RWRWY

WYOMING REGIONAL WEATHER ROUNDUP
NATIONAL WEATHER SERVICE CHEYENNE WY
300 AM MDT MON AUG 03 2015

NOTE:  "FAIR" INDICATES FEW OR NO CLOUDS BELOW 12,000 FEET
WITH NO SIGNIFICANT WEATHER AND/OR OBSTRUCTIONS TO VISIBILITY.

WYZ001-031000-
YELLOWSTONE NATIONAL PARK

CITY           SKY/WX    TMP DP  RH WIND       PRES   REMARKS
LK YELLOWSTONE   N/A     46  36  68 CALM      30.25F
W YELLOWSTONE  NOT AVBL

$$
WYZ002>013-054>058-071-098>099-031000-
NORTHERN WYOMING

CITY           SKY/WX    TMP DP  RH WIND       PRES   REMARKS
JACKSON        NOT AVBL
CODY           FAIR      66  43  42 SW7       30.07S
GREYBULL       FAIR      66  43  43 CALM      29.97F
WORLAND        FAIR      62  38  40 CALM      29.99S
SHERIDAN       FAIR      57  46  66 CALM      30.02F
BUFFALO        FAIR      64  43  46 CALM      30.08F
GILLETTE       FAIR      54  48  80 SW3       30.05F
HULETT         FAIR      61  46  59 CALM      30.07S
NEWCASTLE      FAIR      61  46  59 N7        30.06F

$$
WYZ014>020-022>026-101>103-031000-
CENTRAL WYOMING

CITY           SKY/WX    TMP DP  RH WIND       PRES   REMARKS
BIG PINEY      FAIR      54  32  43 NW5       30.18F
PINEDALE       FAIR      54  32  43 CALM      30.19S
DUBOIS         NOT AVBL
LANDER         FAIR      67  34  29 W10       30.07F
RIVERTON       FAIR      71  42  35 NE7       30.08F
CASPER         FAIR      64  52  64 E6        30.08R
DOUGLAS          N/A     61  52  72 E5        30.06F

$$
WYZ021-027>030-104>119-031000-
SOUTHERN WYOMING

CITY           SKY/WX    TMP DP  RH WIND       PRES   REMARKS
EVANSTON       MOCLDY    62  46  55 SW12      30.19F
KEMMERER       FAIR      64  37  36 SW7       30.18S
FORT BRIDGER   PTSUNNY   68  43  40 SW12      30.20R
ROCK SPRINGS   FAIR      63  46  54 SE3       30.16S
DIXON          FAIR      61  49  65 NE3       30.20F
RAWLINS        FAIR      64  46  52 SW12      30.18R
SARATOGA       FAIR      61  43  51 CALM      30.21S
LARAMIE        FAIR      60  44  55 S6        30.20S
CHEYENNE       FAIR      61  49  64 W5        30.12F
TORRINGTON     FAIR      62  54  74 CALM      29.99S
PINE BLUFFS    FAIR      61  50  67 SW6       30.07F

$$


USA.gov is the U.S. government's official web portal to all federal, state and local government web resources and services.